RH
97 96 93 88 88 84 82 78 76 70 62 47 18 22 25 24 27 30 36 40 46 51 50 50 51 49 47 42 41 39 35 36 36 38 41 43 32 34 30 27 30 32 38 39 36 41 30 26 29 28 25 29 28 29
97 97 95 90 88 85 85 82 77 75 71 60 37 24 26 21 24 35 38 40 48 50 50 51 51 50 48 48 45 44 41 36 35 38 38 38 37 40 32 34 27 30 26 30 30 24 20 23 21 22 25 26 28 29
98 98 96 92 87 87 85 85 81 77 75 67 56 33 33 26 23 33 41 42 47 51 53 52 51 51 52 50 47 46 44 40 36 37 38 36 36 37 37 37 29 27 26 28 24 17 20 20 22 22 24 25 27 30
98 97 98 95 89 92 90 87 85 82 78 73 66 46 41 36 27 36 41 43 43 50 52 50 51 52 50 50 49 47 48 49 45 38 36 38 36 34 35 29 30 26 27 26 27 21 20 19 20 21 22 24 26 27
97 97 98 98 94 94 95 91 91 87 84 79 72 58 51 45 38 40 43 45 47 42 46 43 42 48 51 49 49 49 49 49 50 46 44 42 40 37 37 37 34 26 26 28 24 17 17 17 17 20 22 24 25 26
98 98 97 97 98 97 98 98 93 93 88 84 78 65 62 58 51 50 46 49 50 50 46 47 41 45 47 52 51 50 50 51 52 53 49 44 45 40 45 45 29 25 24 23 21 18 19 20 20 21 23 24 24 26
93 96 98 97 96 97 98 99 99 94 94 91 82 71 68 69 60 61 58 54 53 57 54 48 42 43 48 53 55 55 54 52 51 52 50 48 48 47 47 47 32 30 26 23 20 21 23 22 22 22 23 23 25 26
93 95 96 96 96 98 98 98 98 98 98 95 87 80 75 75 69 66 67 63 61 65 62 62 53 42 44 50 54 57 56 55 52 50 52 52 52 51 49 39 34 33 26 22 21 20 20 22 23 22 24 24 25 28
87 94 96 99 96 95 98 98 98 98 98 95 91 88 84 81 80 70 67 72 73 67 66 64 57 48 44 46 55 61 61 62 55 54 51 51 52 53 40 40 37 34 29 24 21 21 21 23 23 24 25 25 26 30
92 89 96 98 98 97 97 99 98 98 98 98 95 94 88 87 86 81 77 80 80 75 67 63 58 57 48 49 52 60 63 66 67 59 57 58 51 43 41 39 37 35 30 29 27 25 23 24 25 26 26 26 27 31
98 98 99 99 99 99 99 99 99 98 98 96 96 94 92 93 94 88 83 78 78 74 67 64 60 60 56 55 55 55 62 66 69 58 62 58 52 44 42 40 36 36 31 28 25 20 21 22 25 27 28 28 31 33
96 98 99 99 99 99 99 98 98 97 97 96 96 97 98 97 96 94 87 79 72 69 66 65 61 57 55 54 58 58 59 66 68 62 64 57 44 40 43 41 37 35 30 29 27 24 24 25 27 29 29 31 33 35
99 98 99 98 97 99 99 99 98 98 98 98 97 96 94 96 96 86 83 72 69 71 72 64 63 59 60 58 61 62 65 59 52 65 60 49 42 43 50 48 41 40 32 29 29 28 28 28 30 30 31 32 34 37
98 98 98 99 98 98 98 98 98 99 98 97 96 96 93 89 79 72 65 69 71 70 68 67 66 62 60 62 61 65 59 59 61 57 52 46 41 46 54 53 48 44 38 33 30 31 31 31 31 32 32 34 37 38
97 98 99 95 95 98 98 99 96 98 97 96 95 93 83 74 73 66 65 68 69 68 67 70 73 67 71 70 65 64 69 61 47 39 36 37 43 49 58 56 52 49 43 36 34 35 35 34 33 33 34 37 39 41
93 96 98 98 98 98 98 98 98 97 97 97 91 84 77 76 73 72 72 74 72 73 75 75 80 78 75 70 71 63 59 52 41 38 31 34 40 50 62 57 52 52 50 44 39 39 39 37 35 34 36 39 41 44
98 97 96 98 99 98 98 98 98 98 95 91 81 77 75 71 71 75 76 75 73 77 77 81 80 69 70 71 64 56 50 42 40 42 39 35 43 59 69 67 50 47 54 51 44 43 42 40 38 38 38 41 45 47
98 97 98 99 98 98 98 98 98 96 90 83 79 74 76 74 77 78 75 75 75 73 72 68 63 68 66 61 58 49 45 43 46 46 43 36 37 52 61 71 58 43 51 49 44 44 44 41 39 40 43 46 49 48
98 98 98 98 97 97 97 97 96 92 83 79 79 76 78 79 78 78 74 68 67 65 70 68 73 70 69 66 61 54 52 53 53 48 42 38 48 63 65 71 68 60 55 51 50 49 45 41 42 44 47 51 50 49
99 98 98 98 98 98 98 97 95 95 89 84 85 87 87 84 80 75 71 71 73 77 77 71 68 67 64 59 65 65 69 69 67 60 52 51 71 78 78 75 68 61 58 55 55 52 48 46 46 49 52 51 49 48
98 98 98 98 98 98 97 96 97 92 91 87 88 91 92 87 80 71 71 77 85 81 80 71 61 57 64 68 72 76 78 80 80 70 68 71 78 81 82 80 78 69 56 54 55 54 50 47 49 53 54 51 50 47
99 98 97 98 98 97 97 95 94 92 92 91 94 90 84 79 74 75 81 87 83 74 68 65 63 69 74 74 74 78 82 80 69 72 76 77 78 79 78 83 75 64 57 56 56 50 50 53 56 58 55 53 49 46
98 98 99 98 97 97 97 96 96 95 95 93 88 86 81 78 75 79 86 80 72 67 63 65 69 73 72 74 78 80 82 87 88 75 73 76 77 79 81 83 78 63 58 58 52 52 56 60 63 61 59 54 48 45
98 98 98 98 96 97 95 96 93 93 89 82 81 84 81 79 80 84 76 63 54 57 58 58 63 68 72 74 79 83 84 86 90 81 88 87 79 82 82 77 69 64 61 57 59 61 64 68 68 64 58 53 50 46
98 98 98 96 94 93 92 91 91 85 81 83 84 83 80 79 80 76 67 62 65 58 54 57 64 70 76 84 90 97 93 96 87 79 89 92 81 82 80 80 79 74 68 61 65 70 73 72 68 59 54 50 43 38
97 96 95 90 89 85 89 89 86 83 83 81 79 78 78 80 81 74 63 64 68 63 61 64 70 73 79 88 97 98 97 98 91 85 90 88 81 81 78 73 71 70 73 77 77 76 76 69 58 52 46 40 36 34
97 92 90 91 88 84 82 79 78 78 76 74 76 80 83 88 80 67 72 79 81 79 80 86 93 94 94 98 98 98 98 98 94 85 84 84 85 83 80 75 79 84 82 80 81 77 65 56 49 41 37 36 35 35
95 91 86 84 83 78 80 82 82 78 72 72 77 84 83 73 69 76 77 82 83 82 84 87 90 97 98 98 98 97 97 98 94 90 91 90 86 83 87 90 88 85 84 84 75 61 52 43 39 37 36 35 34 31
93 90 86 85 81 80 79 73 69 72 72 72 71 73 71 71 74 77 79 84 93 95 94 94 95 98 98 97 97 97 98 98 94 92 91 88 89 92 90 89 84 84 83 68 55 49 43 39 37 36 35 33 32 30
91 88 89 88 84 77 72 71 74 74 72 70 70 72 78 79 79 79 80 86 91 96 97 97 97 97 97 97 97 97 97 98 97 90 83 85 90 91 87 86 86 76 59 52 49 43 38 37 37 35 34 32 31 32
87 88 88 85 81 78 79 81 81 79 75 73 76 80 79 75 73 71 73 82 85 95 97 97 97 97 97 97 96 97 97 96 94 94 96 94 90 87 88 81 67 58 53 49 40 38 38 37 35 34 32 32 31 30
89 87 87 84 81 83 84 84 85 84 81 78 76 74 74 75 72 73 79 80 85 95 97 97 97 97 97 97 97 97 94 94 96 96 90 87 86 86 76 65 56 54 47 40 40 39 38 36 34 32 31 31 30 29
87 88 87 87 86 86 86 86 88 89 85 83 78 75 76 79 76 70 74 79 89 93 97 97 97 97 97 98 97 96 97 98 97 92 91 88 80 68 60 56 54 46 41 40 40 38 36 35 33 30 30 30 30 31